FW7023 Weather Reports


time (UTC)temp
F
wind
direction
speed
knots
gust
knots
rain 1hr
in
rain 24hr
in
rain mn
in
humidity
%
barometer
mb
20210920062629 72 187 0.9 1.7 0.00 0.00 0.00 83 1010.1
20210920062127 72 231 0.0 0.0 0.00 0.00 0.00 82 1010.2
20210920061626 72 219 0.0 0.0 0.00 0.00 0.00 82 1010.4
20210920061124 73 246 1.7 1.7 0.00 0.00 0.00 82 1010.5
20210920060622 73 203 0.0 0.9 0.00 0.00 0.00 82 1010.5
20210920060116 73 217 0.0 0.0 0.00 0.00 0.00 81 1010.6
20210920055614 73 203 0.9 0.9 0.00 0.00 0.00 81 1010.6
20210920055113 73 207 0.9 0.9 0.00 0.00 0.00 81 1010.4
20210920054613 73 214 0.0 0.9 0.00 0.00 0.00 81 1010.6
20210920054111 73 190 0.0 0.0 0.00 0.00 0.00 81 1010.5
20210920053603 73 221 0.0 0.0 0.00 0.00 0.00 80 1010.8
20210920053101 73 204 0.0 0.9 0.00 0.00 0.00 80 1010.8
20210920052558 73 207 0.0 0.0 0.00 0.00 0.00 80 1010.9
20210920052053 73 210 0.0 0.0 0.00 0.00 0.00 79 1011.0
20210920051553 73 208 0.9 0.9 0.00 0.00 0.00 79 1010.9
20210920051052 74 219 0.0 0.0 0.00 0.00 0.00 79 1010.7
20210920050545 74 202 0.9 0.9 0.00 0.00 0.00 78 1011.0
20210920050043 74 203 0.0 0.0 0.00 0.00 0.00 78 1010.8
20210920045542 74 200 0.9 1.7 0.00 0.00 0.00 78 1010.9
20210920045041 74 248 1.7 1.7 0.00 0.00 0.00 78 1010.9
20210920044534 74 215 0.9 0.9 0.00 0.00 0.00 78 1010.8
20210920044033 74 213 2.6 6.1 0.00 0.00 0.00 77 1010.9
20210920043522 74 217 0.9 1.7 0.00 0.00 0.00 77 1010.9
20210920043021 75 213 0.0 0.0 0.00 0.00 0.00 77 1011.0
20210920042520 75 237 1.7 2.6 0.00 0.00 0.00 77 1011.1
20210920042016 75 222 0.0 0.9 0.00 0.00 0.00 77 1011.2
20210920041516 75 213 2.6 4.3 0.00 0.00 0.00 77 1011.2
20210920041014 75 228 0.9 0.9 0.00 0.00 0.00 77 1011.2
20210920040514 75 184 0.0 1.7 0.00 0.00 0.00 77 1011.2
20210920040013 75 212 2.6 4.3 0.00 0.00 0.00 76 1011.1
20210920035512 75 219 2.6 4.3 0.00 0.00 0.00 76 1011.3
20210920035012 75 198 2.6 4.3 0.00 0.00 0.00 76 1011.4
20210920034510 75 38 0.9 0.9 0.00 0.00 0.00 76 1011.3
20210920034008 75 190 1.7 2.6 0.00 0.00 0.00 75 1011.2
20210920033508 76 350 0.9 1.7 0.00 0.00 0.00 75 1011.1
20210920033007 75 224 1.7 1.7 0.00 0.00 0.00 75 1011.1
20210920032502 76 206 0.0 0.0 0.00 0.00 0.00 75 1011.5
20210920032001 76 197 1.7 1.7 0.00 0.00 0.00 75 1011.2
20210920031500 76 146 0.9 1.7 0.00 0.00 0.00 74 1011.2
20210920030959 76 239 0.9 1.7 0.00 0.00 0.00 74 1011.4
20210920030458 76 181 1.7 1.7 0.00 0.00 0.00 74 1011.2
20210920025956 76 219 0.0 0.9 0.00 0.00 0.00 74 1011.6
20210920025456 76 206 0.0 0.0 0.00 0.00 0.00 74 1011.4
20210920024954 76 212 0.9 0.9 0.00 0.00 0.00 74 1011.3
20210920024453 76 186 0.9 0.9 0.00 0.00 0.00 75 1011.4
20210920023952 76 209 0.0 0.0 0.00 0.00 0.00 74 1011.6
20210920023452 76 217 0.0 0.0 0.00 0.00 0.00 74 1011.4
20210920022950 76 215 0.0 0.0 0.00 0.00 0.00 74 1011.4
20210920022447 76 203 0.0 0.0 0.00 0.00 0.00 74 1011.4
20210920021944 76 228 0.0 0.0 0.00 0.00 0.00 74 1011.3
20210920021443 76 166 0.9 0.9 0.00 0.00 0.00 74 1011.4
20210920020940 76 229 0.0 0.9 0.00 0.00 0.00 73 1011.3
20210920020440 77 217 0.0 0.9 0.00 0.00 0.00 74 1011.3
20210920015938 77 195 0.0 0.9 0.00 0.00 0.00 73 1011.4
20210920015437 77 229 0.9 0.9 0.00 0.00 0.00 73 1011.4
20210920014935 77 158 0.0 0.9 0.00 0.00 0.00 72 1011.3
20210920014435 77 281 0.0 0.0 0.00 0.00 0.00 72 1011.3
20210920013934 77 240 0.0 0.9 0.00 0.00 0.00 72 1011.1
20210920013433 78 204 0.0 0.0 0.00 0.00 0.00 71 1011.3
20210920012932 78 176 0.9 0.9 0.00 0.00 0.00 71 1011.4
20210920012431 78 178 0.0 0.9 0.00 0.00 0.00 70 1010.9
20210920011930 78 220 0.0 0.9 0.00 0.00 0.00 70 1011.0
20210920011429 78 193 0.9 0.9 0.00 0.00 0.00 70 1011.3
20210920010927 78 231 0.0 0.9 0.00 0.00 0.00 69 1011.0
20210920010425 79 220 0.9 0.9 0.00 0.00 0.00 69 1011.2
20210920005922 79 180 0.9 0.9 0.00 0.00 0.00 69 1011.3
20210920005421 79 217 0.0 0.9 0.00 0.00 0.00 68 1011.2
20210920004920 79 207 0.0 0.0 0.00 0.00 0.00 67 1010.9
20210920004418 80 198 0.9 0.9 0.00 0.00 0.00 67 1011.3
20210920003916 80 212 0.0 0.0 0.00 0.00 0.00 66 1011.0
20210920003415 80 210 0.0 0.0 0.00 0.00 0.00 66 1011.2
20210920002914 80 202 0.0 0.0 0.00 0.00 0.00 65 1011.2
20210920002412 80 224 0.9 1.7 0.00 0.00 0.00 64 1011.0
20210920001911 81 212 1.7 1.7 0.00 0.00 0.00 63 1011.3
20210920001408 81 215 0.9 0.9 0.00 0.00 0.00 63 1010.9
20210920000907 82 163 0.0 0.9 0.00 0.00 0.00 62 1011.0
20210920000407 82 205 0.0 0.9 0.00 0.00 0.00 61 1011.2
20210919235903 82 212 0.0 0.9 0.00 0.00 0.00 60 1011.2
20210919235401 82 182 1.7 1.7 0.00 0.00 0.00 59 1011.0
20210919234900 82 228 0.0 0.0 0.00 0.00 0.00 58 1011.1
20210919234400 83 204 2.6 5.2 0.00 0.00 0.00 58 1011.2
20210919233858 83 210 1.7 1.7 0.00 0.00 0.00 57 1011.3
20210919233358 83 209 3.5 4.3 0.00 0.00 0.00 57 1011.3
20210919232857 84 200 1.7 2.6 0.00 0.00 0.00 57 1011.2
20210919232353 84 214 1.7 2.6 0.00 0.00 0.00 58 1011.1
20210919231851 84 207 0.9 0.9 0.00 0.00 0.00 57 1011.1
20210919231352 84 177 2.6 4.3 0.00 0.00 0.00 57 1011.2
20210919230847 84 200 2.6 4.3 0.00 0.00 0.00 57 1011.1
20210919230343 84 230 3.5 5.2 0.00 0.00 0.00 57 1011.2
20210919225842 84 169 0.9 1.7 0.00 0.00 0.00 57 1011.2
20210919225339 84 209 1.7 1.7 0.00 0.00 0.00 58 1011.1
20210919224835 85 198 2.6 2.6 0.00 0.00 0.00 57 1011.2
20210919224334 85 251 2.6 4.3 0.00 0.00 0.00 56 1011.3
20210919223827 85 166 0.9 1.7 0.00 0.00 0.00 56 1011.3
20210919223323 86 236 3.5 4.3 0.00 0.00 0.00 55 1011.4
20210919222817 85 205 2.6 2.6 0.00 0.00 0.00 55 1011.3
20210919222316 85 131 3.5 4.3 0.00 0.00 0.00 56 1011.4
20210919221814 85 254 2.6 4.3 0.00 0.00 0.00 56 1011.4
20210919221312 86 218 0.0 0.9 0.00 0.00 0.00 56 1011.2
20210919220812 86 356 0.0 0.0 0.00 0.00 0.00 56 1011.3
20210919220309 86 202 6.1 7.0 0.00 0.00 0.00 54 1011.3
20210919215806 86 230 4.3 6.1 0.00 0.00 0.00 55 1011.1
20210919215306 86 223 2.6 4.3 0.00 0.00 0.00 55 1011.3
20210919214804 86 230 0.0 0.9 0.00 0.00 0.00 55 1011.4
20210919214303 86 236 0.0 0.9 0.00 0.00 0.00 55 1011.3
20210919213801 86 46 0.9 1.7 0.00 0.00 0.00 56 1011.5
20210919213259 87 220 3.5 5.2 0.00 0.00 0.00 54 1011.5
20210919212759 87 1 0.9 1.7 0.00 0.00 0.00 54 1011.6
20210919212258 87 176 2.6 4.3 0.00 0.00 0.00 53 1011.7
20210919211756 87 205 2.6 5.2 0.00 0.00 0.00 54 1011.5
20210919211255 86 36 1.7 2.6 0.00 0.00 0.00 55 1011.6
20210919210754 87 211 1.7 1.7 0.00 0.00 0.00 56 1011.8
20210919210252 87 223 0.9 1.7 0.00 0.00 0.00 55 1011.8
20210919205752 88 236 1.7 1.7 0.00 0.00 0.00 53 1011.7
20210919205250 89 43 1.7 2.6 0.00 0.00 0.00 51 1011.9
20210919204750 89 54 0.9 0.9 0.00 0.00 0.00 51 1012.1
20210919204248 90 177 5.2 6.1 0.00 0.00 0.00 50 1012.1
20210919203747 89 213 0.0 0.9 0.00 0.00 0.00 52 1012.0
20210919203246 89 194 1.7 1.7 0.00 0.00 0.00 52 1012.3
20210919202744 88 203 1.7 1.7 0.00 0.00 0.00 53 1012.2
20210919202244 89 290 1.7 2.6 0.00 0.00 0.00 52 1012.5
20210919201742 90 226 3.5 6.1 0.00 0.00 0.00 51 1012.5
20210919201241 89 257 0.0 0.9 0.00 0.00 0.00 51 1012.5
20210919200736 89 225 6.1 7.8 0.00 0.00 0.00 52 1012.6
20210919200236 89 123 2.6 4.3 0.00 0.00 0.00 51 1012.6
20210919195735 88 233 0.0 0.0 0.00 0.00 0.00 52 1012.9
20210919195234 89 46 2.6 4.3 0.00 0.00 0.00 51 1013.0
20210919194733 89 196 0.0 0.9 0.00 0.00 0.00 53 1013.0
20210919194229 89 31 4.3 6.1 0.00 0.00 0.00 52 1013.0
20210919193729 89 257 0.0 0.0 0.00 0.00 0.00 52 1013.0
20210919193228 88 207 2.6 4.3 0.00 0.00 0.00 53 1013.1
20210919192726 87 218 0.0 0.0 0.00 0.00 0.00 54 1013.2
20210919192224 87 228 0.9 0.9 0.00 0.00 0.00 54 1013.6
20210919191723 88 209 1.7 1.7 0.00 0.00 0.00 53 1013.3
20210919191221 88 155 1.7 2.6 0.00 0.00 0.00 53 1013.5
20210919190720 87 208 0.0 0.9 0.00 0.00 0.00 54 1013.4
20210919190215 87 203 5.2 7.8 0.00 0.00 0.00 52 1013.4
20210919185714 86 235 4.3 6.1 0.00 0.00 0.00 54 1013.6
20210919185214 86 211 3.5 6.1 0.00 0.00 0.00 55 1014.0
20210919184712 88 199 6.1 7.8 0.00 0.00 0.00 54 1014.0
20210919184208 87 325 2.6 4.3 0.00 0.00 0.00 55 1013.8
20210919183707 86 222 3.5 6.1 0.00 0.00 0.00 56 1013.9
20210919183204 87 232 7.0 7.8 0.00 0.00 0.00 54 1014.0
20210919182705 87 223 2.6 4.3 0.00 0.00 0.00 55 1013.9
20210919182202 87 194 3.5 4.3 0.00 0.00 0.00 55 1014.2
20210919181701 87 200 1.7 2.6 0.00 0.00 0.00 55 1014.4
20210919181159 86 26 0.9 2.6 0.00 0.00 0.00 57 1014.8
20210919180657 86 223 2.6 4.3 0.00 0.00 0.00 59 1014.8
20210919180155 87 222 2.6 6.1 0.00 0.00 0.00 58 1014.5
20210919175655 87 288 1.7 2.6 0.00 0.00 0.00 59 1015.1
20210919175153 87 296 1.7 2.6 0.00 0.00 0.00 57 1015.1
20210919174652 86 234 2.6 5.2 0.00 0.00 0.00 59 1015.2
20210919174152 86 233 0.9 0.9 0.00 0.00 0.00 59 1015.3
20210919173650 86 221 1.7 1.7 0.00 0.00 0.00 60 1015.7
20210919173147 84 231 0.9 1.7 0.00 0.00 0.00 62 1015.6
20210919172646 84 201 3.5 7.0 0.00 0.00 0.00 64 1015.7
20210919172142 84 235 5.2 5.2 0.00 0.00 0.00 64 1015.7
20210919171639 84 211 0.9 0.9 0.00 0.00 0.00 63 1015.8
20210919171135 84 208 4.3 6.1 0.00 0.00 0.00 63 1015.8
20210919170633 84 221 3.5 7.0 0.00 0.00 0.00 63 1015.9
20210919170133 83 213 5.2 7.8 0.00 0.00 0.00 64 1015.9
20210919165630 84 202 2.6 2.6 0.00 0.00 0.00 63 1015.8
20210919165120 84 202 4.3 5.2 0.00 0.00 0.00 62 1015.9
20210919164618 83 199 4.3 6.1 0.00 0.00 0.00 65 1016.1
20210919164118 83 237 1.7 2.6 0.00 0.00 0.00 65 1016.1
20210919163617 84 194 2.6 4.3 0.00 0.00 0.00 64 1016.2
20210919163114 84 210 4.3 6.1 0.00 0.00 0.00 64 1016.2
20210919162614 84 234 1.7 4.3 0.00 0.00 0.00 63 1016.2
20210919162113 83 263 3.5 6.1 0.00 0.00 0.00 63 1016.3
20210919161613 85 202 1.7 2.6 0.00 0.00 0.00 63 1016.2
20210919161111 85 215 4.3 6.1 0.00 0.00 0.00 61 1016.6
20210919160611 84 190 2.6 2.6 0.00 0.00 0.00 64 1016.5
20210919160109 83 62 2.6 2.6 0.00 0.00 0.00 66 1016.4
20210919155609 83 230 3.5 8.7 0.00 0.00 0.00 65 1016.8
20210919155107 84 203 0.0 0.0 0.00 0.00 0.00 66 1016.6
20210919154607 84 222 0.9 0.9 0.00 0.00 0.00 64 1016.6
20210919154106 83 237 1.7 2.6 0.00 0.00 0.00 66 1016.9
20210919153604 84 193 0.0 0.0 0.00 0.00 0.00 66 1016.9
20210919153101 82 214 0.9 1.7 0.00 0.00 0.00 67 1016.9
20210919152601 80 201 1.7 2.6 0.00 0.00 0.00 70 1016.9
20210919152059 81 157 1.7 1.7 0.00 0.00 0.00 69 1016.9
20210919151558 82 188 0.0 0.0 0.00 0.00 0.00 68 1016.8
20210919151057 81 215 1.7 1.7 0.00 0.00 0.00 70 1017.0
20210919150552 80 196 1.7 1.7 0.00 0.00 0.00 71 1017.0
20210919150052 79 216 0.9 1.7 0.00 0.00 0.00 72 1017.2
20210919145550 79 225 2.6 2.6 0.00 0.00 0.00 74 1016.9
20210919145050 79 218 2.6 4.3 0.00 0.00 0.00 74 1017.1
20210919144548 80 206 1.7 4.3 0.00 0.00 0.00 72 1017.1
20210919144046 79 205 0.0 0.9 0.00 0.00 0.00 76 1017.1
20210919143545 79 186 0.0 0.9 0.00 0.00 0.00 76 1017.1
20210919143044 78 220 0.9 0.9 0.00 0.00 0.00 77 1017.2
20210919142542 78 184 0.0 0.0 0.00 0.00 0.00 78 1016.8
20210919142041 76 208 0.9 0.9 0.00 0.00 0.00 80 1017.2
20210919141540 76 208 1.7 2.6 0.00 0.00 0.00 81 1017.1
20210919141037 75 227 1.7 1.7 0.00 0.00 0.00 83 1016.9
20210919140536 74 191 2.6 2.6 0.00 0.00 0.00 84 1016.8
20210919140035 74 207 0.9 0.9 0.00 0.00 0.00 85 1017.0
20210919135533 73 201 0.0 0.9 0.00 0.00 0.00 85 1016.9
20210919135032 73 195 0.9 1.7 0.00 0.00 0.00 86 1016.8
20210919134531 73 188 1.7 1.7 0.00 0.00 0.00 87 1017.0
20210919134030 72 199 0.0 0.0 0.00 0.00 0.00 87 1017.0
20210919133529 72 214 1.7 1.7 0.00 0.00 0.00 88 1016.9
20210919133029 72 220 2.6 2.6 0.00 0.00 0.00 88 1016.8
20210919132528 71 214 0.9 2.6 0.00 0.00 0.00 90 1016.8
20210919132026 71 207 0.0 0.0 0.00 0.00 0.00 91 1017.0
20210919131525 70 191 0.0 0.9 0.00 0.00 0.00 91 1016.9
20210919131019 70 199 0.0 0.9 0.00 0.00 0.00 92 1016.9
20210919130517 70 200 0.0 0.0 0.00 0.00 0.00 92 1016.9
20210919130016 69 203 0.0 0.9 0.00 0.00 0.00 93 1017.0
20210919125514 69 234 0.0 0.9 0.00 0.00 0.00 94 1017.0
20210919125013 69 203 0.0 0.0 0.00 0.00 0.00 94 1016.8
20210919124510 68 153 0.0 0.0 0.00 0.00 0.00 95 1017.0
20210919124009 68 199 0.0 0.0 0.00 0.00 0.00 95 1017.1
20210919123507 68 230 1.7 1.7 0.00 0.00 0.00 95 1017.2
20210919123007 67 227 0.0 0.0 0.00 0.00 0.00 95 1016.9
20210919122505 67 206 0.0 0.0 0.00 0.00 0.00 95 1017.1
20210919122004 67 215 0.0 0.0 0.00 0.00 0.00 95 1016.9
20210919121504 67 215 0.0 0.0 0.00 0.00 0.00 95 1017.0
20210919121003 67 219 0.0 0.0 0.00 0.00 0.00 95 1016.9
20210919120501 67 210 0.0 0.0 0.00 0.00 0.00 95 1016.9
20210919115958 67 236 0.0 0.0 0.00 0.00 0.00 95 1017.0
20210919115457 67 214 0.0 0.0 0.00 0.00 0.00 95 1016.8
20210919114956 67 219 0.0 0.0 0.00 0.00 0.00 95 1016.9
20210919114456 67 215 0.0 0.0 0.00 0.00 0.00 94 1016.7
20210919113955 67 222 0.0 0.0 0.00 0.00 0.00 94 1016.9
20210919113453 67 214 0.0 0.0 0.00 0.00 0.00 94 1016.9
20210919112951 67 223 0.0 0.0 0.00 0.00 0.00 94 1016.9
20210919112451 67 215 0.0 0.0 0.00 0.00 0.00 94 1016.9
20210919111946 68 232 0.0 0.0 0.00 0.00 0.00 95 1017.0
20210919111446 68 204 0.0 0.0 0.00 0.00 0.00 95 1016.9
20210919110945 68 209 0.0 0.0 0.00 0.00 0.00 95 1016.6
20210919110443 68 207 0.0 0.0 0.00 0.00 0.00 95 1016.9
20210919105943 68 224 0.0 0.0 0.00 0.00 0.00 95 1016.7
20210919105439 67 215 0.0 0.0 0.00 0.00 0.00 95 1016.8
20210919104939 66 223 0.0 0.0 0.00 0.00 0.00 95 1016.8
20210919104431 66 215 0.0 0.0 0.00 0.00 0.00 95 1016.8
20210919103931 65 222 0.0 0.0 0.00 0.00 0.00 95 1016.6
20210919103430 65 208 0.0 0.0 0.00 0.00 0.00 95 1016.8
20210919102928 65 210 0.0 0.0 0.00 0.00 0.00 95 1016.6
20210919102428 65 209 0.0 0.0 0.00 0.00 0.00 95 1016.8
20210919101924 66 209 0.0 0.0 0.00 0.00 0.00 95 1016.7
20210919101424 66 212 0.0 0.0 0.00 0.00 0.00 95 1016.6
20210919100921 66 212 0.0 0.0 0.00 0.00 0.00 95 1016.6
20210919100420 66 220 0.0 0.0 0.00 0.00 0.00 95 1016.7
20210919095919 66 204 0.0 0.0 0.00 0.00 0.00 95 1016.7
20210919095418 66 218 0.0 0.0 0.00 0.00 0.00 95 1016.5
20210919094917 66 211 0.0 0.0 0.00 0.00 0.00 95 1016.7
20210919094415 66 204 0.0 0.0 0.00 0.00 0.00 95 1016.7
20210919093914 66 212 0.0 0.0 0.00 0.00 0.00 95 1016.5
20210919093408 66 211 0.0 0.0 0.00 0.00 0.00 95 1016.9
20210919092906 66 211 0.0 0.0 0.00 0.00 0.00 95 1016.6
20210919092403 66 218 0.0 0.0 0.00 0.00 0.00 95 1016.9
20210919091902 66 211 0.0 0.0 0.00 0.00 0.00 95 1016.9
20210919091401 66 208 0.0 0.0 0.00 0.00 0.00 95 1016.8
20210919090900 66 208 0.0 0.0 0.00 0.00 0.00 95 1016.9
20210919090357 66 206 0.0 0.0 0.00 0.00 0.00 95 1016.5
20210919085854 66 208 0.0 0.0 0.00 0.00 0.00 95 1016.6
20210919085355 66 206 0.0 0.0 0.00 0.00 0.00 95 1016.9
20210919084852 66 208 0.0 0.0 0.00 0.00 0.00 95 1017.1
20210919084351 66 208 0.0 0.0 0.00 0.00 0.00 95 1017.0
20210919083850 66 208 0.0 0.0 0.00 0.00 0.00 95 1017.1
20210919083346 66 211 0.0 0.0 0.00 0.00 0.00 95 1017.0
20210919082846 67 211 0.0 0.0 0.00 0.00 0.00 95 1017.2
20210919082344 67 208 0.0 0.0 0.00 0.00 0.00 95 1017.2
20210919081843 67 205 0.0 0.0 0.00 0.00 0.00 95 1017.3
20210919081342 67 208 0.0 0.0 0.00 0.00 0.00 95 1017.2
20210919080840 67 220 0.0 0.0 0.00 0.00 0.00 95 1017.2
20210919080340 67 234 0.0 0.0 0.00 0.00 0.00 95 1017.4
20210919075839 67 218 0.0 0.0 0.00 0.00 0.00 95 1017.3
20210919075339 67 206 0.0 0.0 0.00 0.00 0.00 95 1017.4
20210919074837 67 234 0.0 0.0 0.00 0.00 0.00 95 1017.6
20210919074337 67 213 0.0 0.0 0.00 0.00 0.00 95 1017.4
20210919073837 67 208 0.0 0.0 0.00 0.00 0.00 95 1017.3
20210919073335 67 208 0.0 0.0 0.00 0.00 0.00 95 1017.3
20210919072834 67 210 0.0 0.0 0.00 0.00 0.00 95 1017.5
20210919072331 67 211 0.0 0.0 0.00 0.00 0.00 95 1017.4
20210919071827 67 211 0.0 0.0 0.00 0.00 0.00 95 1017.5
20210919071326 67 208 0.0 0.0 0.00 0.00 0.00 95 1017.3
20210919070824 67 215 0.0 0.0 0.00 0.00 0.00 95 1017.4
20210919070322 67 215 0.0 0.0 0.00 0.00 0.00 95 1017.5
20210919065822 67 211 0.0 0.0 0.00 0.00 0.00 95 1017.5
20210919065320 67 215 0.0 0.0 0.00 0.00 0.00 94 1017.6
20210919064819 68 212 0.0 0.0 0.00 0.00 0.00 94 1017.6
20210919064318 68 213 0.0 0.0 0.00 0.00 0.00 94 1017.6
20210919063817 67 205 0.0 0.0 0.00 0.00 0.00 94 1017.5
20210919063317 68 207 0.0 0.0 0.00 0.00 0.00 94 1017.6